Weather History for KAUM - October, 2013

Change the Weather History Date:

Thursday, October 17, 2013

  Actual Average Record
Temperature  
Mean Temperature 42 °F -  
Max Temperature 55 °F 57 °F - (-1)
Min Temperature 30 °F 37 °F - (-1)
Degree Days  
Heating Degree Days 22    
Moisture  
Dew Point 36 °F    
Average Humidity 83    
Maximum Humidity 100    
Minimum Humidity 47    
Precipitation  
Precipitation 0.00 in - - ()
Sea Level Pressure  
Sea Level Pressure 29.84 in    
Wind  
Wind Speed 3 mph (WSW)    
Max Wind Speed 15 mph    
Max Gust Speed 22 mph    
Visibility 8 miles    
Events      
Averages and records for this station are not official NWS values.
T = Trace of Precipitation, MM = Missing Value Source: NWS Daily Summary

Daily Weather History Graph

Daily Weather History Graph

Search for Another Location

Airport or City:

Trip Planner

Search our weather history database for the weather conditions in past years. The results will help you decide how hot, cold, wet, or windy it might be!

Date:

Astronomy

Oct. 17, 2013 Rise Set
Actual Time 7:28 AM CDT 6:24 PM CDT
Civil Twilight 6:59 AM CDT 6:53 PM CDT
Nautical Twilight 6:26 AM CDT 7:26 PM CDT
Astronomical Twilight 5:53 AM CDT 7:59 PM CDT
Moon 5:40 PM CDT (10/17) 5:59 AM CDT (10/17)
Length of Visible Light 11h 53m
Length of Day
10h 55m
Waxing Gibbous, 98% of the Moon is Illuminated
Oct 17
Waxing Gibbous
Oct 18
Full
Oct 26
Last Quarter
Nov 3
New
Nov 9
First Quarter

Hourly Weather History & Observations

Time (CDT) Temp. Windchill Dew Point Humidity Pressure Visibility Wind Dir Wind Speed Gust Speed Precip Events Conditions
12:16 AM 33.8 °F - 33.8 °F 100% 29.92 in 10.0 mi Calm Calm - N/A   Clear
12:37 AM 35.6 °F - 35.6 °F 100% 29.91 in 10.0 mi Calm Calm - N/A   Clear
12:57 AM 33.8 °F - 33.8 °F 100% 29.91 in 10.0 mi Calm Calm - N/A   Clear
1:16 AM 33.8 °F - 33.8 °F 100% 29.90 in 7.0 mi Calm Calm - N/A   Clear
1:37 AM 33.8 °F - 33.8 °F 100% 29.90 in 7.0 mi Calm Calm - N/A   Clear
1:57 AM 33.8 °F 30.8 °F 33.8 °F 100% 29.90 in 10.0 mi South 3.5 mph - N/A   Clear
2:16 AM 33.8 °F 30.8 °F 33.8 °F 100% 29.90 in 7.0 mi SSW 3.5 mph - N/A   Clear
2:37 AM 33.8 °F 30.8 °F 33.8 °F 100% 29.90 in 7.0 mi South 3.5 mph - N/A   Clear
2:57 AM 33.8 °F 29.6 °F 33.8 °F 100% 29.89 in 7.0 mi South 4.6 mph - N/A   Clear
3:16 AM 33.8 °F - 33.8 °F 100% 29.89 in 7.0 mi Calm Calm - N/A   Clear
3:37 AM 33.8 °F - 33.8 °F 100% 29.88 in 7.0 mi Calm Calm - N/A   Clear
3:57 AM 30.2 °F - 30.2 °F 100% 29.87 in 5.0 mi Calm Calm - N/A   Clear
4:16 AM 32.0 °F - 32.0 °F 100% 29.87 in 4.0 mi Calm Calm - N/A   Clear
4:37 AM 32.0 °F - 32.0 °F 100% 29.86 in 5.0 mi Calm Calm - N/A   Clear
4:56 AM 30.2 °F - 30.2 °F 100% 29.86 in 4.0 mi Calm Calm - N/A   Clear
5:17 AM 30.2 °F - 30.2 °F 100% 29.86 in 4.0 mi Calm Calm - N/A   Clear
5:37 AM 30.2 °F - 30.2 °F 100% 29.86 in 4.0 mi Calm Calm - N/A   Clear
5:56 AM 30.2 °F - 30.2 °F 100% 29.85 in 2.0 mi Calm Calm - N/A   Clear
6:17 AM 30.2 °F - 30.2 °F 100% 29.86 in 4.0 mi Calm Calm - N/A   Clear
6:37 AM 30.2 °F - 30.2 °F 100% 29.85 in 4.0 mi Calm Calm - N/A   Clear
6:56 AM 30.2 °F - 30.2 °F 100% 29.85 in 5.0 mi Calm Calm - N/A   Clear
7:16 AM 30.2 °F - 30.2 °F 100% 29.85 in 4.0 mi Calm Calm - N/A   Clear
7:37 AM 30.2 °F - 30.2 °F 100% 29.85 in 4.0 mi Calm Calm - N/A   Clear
7:56 AM 30.2 °F - 30.2 °F 100% 29.86 in 4.0 mi Calm Calm - N/A   Clear
8:17 AM 32.0 °F - 32.0 °F 100% 29.86 in 5.0 mi Calm Calm - N/A   Clear
8:36 AM 32.0 °F - 32.0 °F 100% 29.86 in 5.0 mi Calm Calm - N/A   Clear
8:57 AM 33.8 °F 30.8 °F 33.8 °F 100% 29.86 in 7.0 mi South 3.5 mph - N/A   Clear
9:17 AM 35.6 °F - 35.6 °F 100% 29.86 in 7.0 mi Calm Calm - N/A   Clear
9:36 AM 37.4 °F 34.9 °F 37.4 °F 100% 29.86 in 10.0 mi SSW 3.5 mph - N/A   Clear
9:57 AM 39.2 °F 35.9 °F 37.4 °F 93% 29.86 in 10.0 mi SE 4.6 mph - N/A   Clear
10:17 AM 42.8 °F 41.1 °F 39.2 °F 87% 29.85 in 10.0 mi SW 3.5 mph - N/A   Clear
10:36 AM 44.6 °F 43.1 °F 39.2 °F 81% 29.85 in 10.0 mi SW 3.5 mph - N/A   Clear
10:57 AM 46.4 °F 45.2 °F 39.2 °F 76% 29.85 in 10.0 mi SW 3.5 mph - N/A   Clear
11:17 AM 46.4 °F 45.2 °F 39.2 °F 76% 29.84 in 10.0 mi SW 3.5 mph - N/A   Clear
11:36 AM 48.2 °F - 42.8 °F 82% 29.84 in 10.0 mi WSW 5.8 mph - N/A   Clear
11:57 AM 48.2 °F - 39.2 °F 71% 29.84 in 10.0 mi SW 5.8 mph - N/A   Clear
12:17 PM 50.0 °F - 39.2 °F 66% 29.84 in 10.0 mi WSW 3.5 mph - N/A   Clear
12:36 PM 50.0 °F - 39.2 °F 66% 29.83 in 10.0 mi West 4.6 mph - N/A   Clear
12:57 PM 51.8 °F - 37.4 °F 58% 29.83 in 10.0 mi WSW 5.8 mph - N/A   Clear
1:17 PM 51.8 °F - 37.4 °F 58% 29.82 in 10.0 mi SW 4.6 mph - N/A   Clear
1:36 PM 53.6 °F - 35.6 °F 51% 29.81 in 10.0 mi WSW 5.8 mph - N/A   Clear
1:57 PM 53.6 °F - 35.6 °F 51% 29.81 in 10.0 mi West 5.8 mph - N/A   Clear
2:17 PM 53.6 °F - 35.6 °F 51% 29.81 in 10.0 mi WSW 5.8 mph - N/A   Clear
2:36 PM 53.6 °F - 35.6 °F 51% 29.80 in 10.0 mi West 6.9 mph - N/A   Scattered Clouds
2:57 PM 55.4 °F - 37.4 °F 51% 29.79 in 10.0 mi WSW 6.9 mph - N/A   Scattered Clouds
3:17 PM 55.4 °F - 35.6 °F 47% 29.80 in 10.0 mi SW 5.8 mph - N/A   Scattered Clouds
3:36 PM 53.6 °F - 35.6 °F 51% 29.79 in 10.0 mi West 5.8 mph - N/A   Scattered Clouds
3:57 PM 53.6 °F - 35.6 °F 51% 29.80 in 10.0 mi SW 5.8 mph - N/A   Scattered Clouds
4:16 PM 53.6 °F - 35.6 °F 51% 29.79 in 10.0 mi SW 6.9 mph - N/A   Scattered Clouds
4:37 PM 53.6 °F - 35.6 °F 51% 29.79 in 10.0 mi SW 4.6 mph - N/A   Scattered Clouds
4:56 PM 53.6 °F - 37.4 °F 54% 29.79 in 10.0 mi SW 5.8 mph - N/A   Scattered Clouds
5:17 PM 53.6 °F - 37.4 °F 54% 29.78 in 10.0 mi SW 5.8 mph - N/A   Scattered Clouds
5:37 PM 51.8 °F - 39.2 °F 62% 29.78 in 10.0 mi SSW 4.6 mph - N/A   Mostly Cloudy
5:56 PM 51.8 °F - 37.4 °F 58% 29.78 in 10.0 mi South 4.6 mph - N/A   Overcast
6:17 PM 51.8 °F - 37.4 °F 58% 29.79 in 10.0 mi SSW 3.5 mph - N/A   Overcast
6:37 PM 51.8 °F - 39.2 °F 62% 29.79 in 10.0 mi South 3.5 mph - N/A   Overcast
6:56 PM 51.8 °F - 39.2 °F 62% 29.79 in 10.0 mi WSW 5.8 mph 10.4 mph N/A   Overcast
7:17 PM 51.8 °F - 41.0 °F 67% 29.80 in 10.0 mi WNW 10.4 mph - N/A   Overcast
7:37 PM 50.0 °F - 41.0 °F 71% 29.81 in 10.0 mi WNW 11.5 mph - N/A   Overcast
7:56 PM 48.2 °F - 41.0 °F 76% 29.81 in 10.0 mi WNW 15.0 mph 20.7 mph N/A   Overcast
8:17 PM 46.4 °F 40.7 °F 42.8 °F 87% 29.82 in 10.0 mi WNW 12.7 mph - N/A   Overcast
8:37 PM 46.4 °F 41.1 °F 42.8 °F 87% 29.82 in 10.0 mi WNW 11.5 mph 18.4 mph N/A   Overcast
8:56 PM 46.4 °F 41.9 °F 42.8 °F 87% 29.83 in 10.0 mi WNW 9.2 mph 16.1 mph N/A   Overcast
9:17 PM 46.4 °F 41.1 °F 44.6 °F 93% 29.83 in 10.0 mi WNW 11.5 mph - N/A   Light Drizzle
9:37 PM 44.6 °F 37.8 °F 42.8 °F 93% 29.84 in 7.0 mi West 15.0 mph 21.9 mph N/A   Overcast
9:56 PM 42.8 °F 36.6 °F 42.8 °F 100% 29.85 in 5.0 mi West 11.5 mph 19.6 mph N/A   Light Drizzle
10:17 PM 42.8 °F 35.4 °F 42.8 °F 100% 29.85 in 7.0 mi WNW 15.0 mph - N/A   Overcast
10:37 PM 42.8 °F 36.2 °F 41.0 °F 93% 29.85 in 7.0 mi West 12.7 mph - N/A   Overcast
10:57 PM 42.8 °F 35.8 °F 41.0 °F 93% 29.86 in 7.0 mi West 13.8 mph 18.4 mph N/A   Overcast
11:17 PM 41.0 °F 35.2 °F 41.0 °F 100% 29.86 in 5.0 mi West 9.2 mph 16.1 mph N/A   Overcast
11:36 PM 41.0 °F 34.3 °F 41.0 °F 100% 29.86 in 2.0 mi West 11.5 mph 18.4 mph N/A   Overcast
11:57 PM 41.0 °F 33.5 °F 41.0 °F 100% 29.85 in 4.0 mi WNW 13.8 mph 17.3 mph N/A   Light Drizzle